Time,TemperatureF,DewpointF,PressureIn,WindDirection,WindDirectionDegrees,WindSpeedMPH,WindSpeedGustMPH,Humidity,HourlyPrecipIn,Conditions,Clouds,dailyrainin,SolarRadiationWatts/m^2,SoftwareType,DateUTC
2013-07-14 00:02:00,57.8,51.7,30.03,ENE,57,0.0,0.0,80,0.00,FEW,,0.00,0.0,WeatherDisplay:10.37,2013-07-13 22:02:00,
2013-07-14 00:07:00,57.7,51.6,30.03,ENE,57,0.0,0.0,80,0.00,FEW,,0.00,0.0,WeatherDisplay:10.37,2013-07-13 22:07:00,
2013-07-14 00:12:00,57.6,51.8,30.03,ENE,57,0.0,0.0,81,0.00,FEW,,0.00,0.0,WeatherDisplay:10.37,2013-07-13 22:12:00,
2013-07-14 00:17:00,57.5,51.7,30.03,ENE,57,0.0,0.0,81,0.00,FEW,,0.00,0.0,WeatherDisplay:10.37,2013-07-13 22:17:00,
2013-07-14 00:22:00,57.4,51.6,30.03,ENE,57,0.0,0.0,81,0.00,FEW,,0.00,0.0,WeatherDisplay:10.37,2013-07-13 22:22:00,
2013-07-14 00:27:00,57.3,51.5,30.03,ENE,57,0.0,0.0,81,0.00,FEW,,0.00,0.0,WeatherDisplay:10.37,2013-07-13 22:27:00,
2013-07-14 00:32:00,57.2,51.8,30.03,ENE,57,0.0,0.0,82,0.00,FEW,,0.00,0.0,WeatherDisplay:10.37,2013-07-13 22:32:00,
2013-07-14 00:37:00,57.1,51.7,30.03,ENE,57,0.0,0.0,82,0.00,FEW,,0.00,0.0,WeatherDisplay:10.37,2013-07-13 22:37:00,
2013-07-14 00:42:00,57.0,51.6,30.03,ENE,57,0.0,0.0,82,0.00,FEW,,0.00,0.0,WeatherDisplay:10.37,2013-07-13 22:42:00,
2013-07-14 00:47:00,57.0,51.6,30.03,ENE,57,0.0,0.0,82,0.00,FEW,,0.00,0.0,WeatherDisplay:10.37,2013-07-13 22:47:00,
2013-07-14 00:52:00,57.0,51.6,30.03,ENE,57,0.0,0.0,82,0.00,FEW,,0.00,0.0,WeatherDisplay:10.37,2013-07-13 22:52:00,
2013-07-14 00:57:00,57.1,51.7,30.03,ENE,57,0.0,0.0,82,0.00,FEW,,0.00,0.0,WeatherDisplay:10.37,2013-07-13 22:57:00,
2013-07-14 01:02:00,57.1,51.7,30.03,ENE,57,0.0,0.0,82,0.00,FEW,,0.00,0.0,WeatherDisplay:10.37,2013-07-13 23:02:00,
2013-07-14 01:07:00,57.1,51.7,30.03,ENE,57,0.0,0.0,82,0.00,FEW,,0.00,0.0,WeatherDisplay:10.37,2013-07-13 23:07:00,
2013-07-14 01:12:00,57.1,51.7,30.03,ENE,57,0.0,0.0,82,0.00,FEW,,0.00,0.0,WeatherDisplay:10.37,2013-07-13 23:12:00,
2013-07-14 01:17:00,57.1,51.7,30.03,ENE,57,0.0,0.0,82,0.00,FEW,,0.00,0.0,WeatherDisplay:10.37,2013-07-13 23:17:00,
2013-07-14 01:22:00,57.1,51.7,30.03,ENE,57,0.0,0.0,82,0.00,FEW,,0.00,0.0,WeatherDisplay:10.37,2013-07-13 23:22:00,
2013-07-14 01:27:00,57.1,52.0,30.03,ENE,57,0.0,0.0,83,0.00,FEW,,0.00,0.0,WeatherDisplay:10.37,2013-07-13 23:27:00,
2013-07-14 01:32:00,57.4,52.3,30.03,ENE,57,0.0,0.0,83,0.00,FEW,,0.00,0.0,WeatherDisplay:10.37,2013-07-13 23:32:00,
2013-07-14 01:37:00,57.6,52.5,30.03,ENE,57,0.0,0.0,83,0.00,FEW,,0.00,0.0,WeatherDisplay:10.37,2013-07-13 23:37:00,
2013-07-14 01:42:00,57.8,52.7,30.03,ENE,57,0.0,0.0,83,0.00,FEW,,0.00,0.0,WeatherDisplay:10.37,2013-07-13 23:42:00,
2013-07-14 01:47:00,57.9,52.8,30.03,ENE,57,0.0,0.0,83,0.00,FEW,,0.00,0.0,WeatherDisplay:10.37,2013-07-13 23:47:00,
2013-07-14 01:52:00,58.1,53.0,30.02,ENE,57,0.0,0.0,83,0.00,FEW,,0.00,0.0,WeatherDisplay:10.37,2013-07-13 23:52:00,
2013-07-14 01:57:00,58.2,53.1,30.03,ENE,57,0.0,0.0,83,0.00,FEW,,0.00,0.0,WeatherDisplay:10.37,2013-07-13 23:57:00,
2013-07-14 02:02:00,58.3,52.8,30.03,ENE,57,0.0,0.0,82,0.00,FEW,,0.00,0.0,WeatherDisplay:10.37,2013-07-14 00:02:00,
2013-07-14 02:07:00,58.3,52.8,30.03,ENE,57,0.0,0.0,82,0.00,FEW,,0.00,0.0,WeatherDisplay:10.37,2013-07-14 00:07:00,
2013-07-14 02:12:00,58.3,52.8,30.02,ENE,57,0.0,0.0,82,0.00,FEW,,0.00,0.0,WeatherDisplay:10.37,2013-07-14 00:12:00,
2013-07-14 02:17:00,58.4,52.9,30.02,ENE,57,0.0,0.0,82,0.00,FEW,,0.00,0.0,WeatherDisplay:10.37,2013-07-14 00:17:00,
2013-07-14 02:22:00,58.4,52.9,30.03,ENE,57,0.0,0.0,82,0.00,FEW,,0.00,0.0,WeatherDisplay:10.37,2013-07-14 00:22:00,
2013-07-14 02:27:00,58.4,52.9,30.02,ENE,57,0.0,0.0,82,0.00,FEW,,0.00,0.0,WeatherDisplay:10.37,2013-07-14 00:27:00,
2013-07-14 02:32:00,58.5,53.0,30.02,ENE,57,0.0,0.0,82,0.00,FEW,,0.00,0.0,WeatherDisplay:10.37,2013-07-14 00:32:00,
2013-07-14 02:37:00,58.5,53.0,30.02,ENE,57,0.0,0.0,82,0.00,FEW,,0.00,0.0,WeatherDisplay:10.37,2013-07-14 00:37:00,
2013-07-14 02:42:00,58.5,53.0,30.02,ENE,57,0.0,0.0,82,0.00,FEW,,0.00,0.0,WeatherDisplay:10.37,2013-07-14 00:42:00,
2013-07-14 02:47:00,58.5,53.0,30.02,ENE,57,0.0,0.0,82,0.00,FEW,,0.00,0.0,WeatherDisplay:10.37,2013-07-14 00:47:00,
2013-07-14 02:52:00,58.6,53.1,30.01,ENE,57,0.0,0.0,82,0.00,FEW,,0.00,0.0,WeatherDisplay:10.37,2013-07-14 00:52:00,
2013-07-14 02:57:00,58.5,53.0,30.01,ENE,57,0.0,1.2,82,0.00,FEW,,0.00,0.0,WeatherDisplay:10.37,2013-07-14 00:57:00,
2013-07-14 03:02:00,58.5,52.7,30.01,ENE,57,0.0,0.0,81,0.00,FEW,,0.00,0.0,WeatherDisplay:10.37,2013-07-14 01:02:00,
2013-07-14 03:07:00,58.5,52.7,30.01,ENE,57,0.0,0.0,81,0.00,FEW,,0.00,0.0,WeatherDisplay:10.37,2013-07-14 01:07:00,
2013-07-14 03:12:00,58.4,52.6,30.01,ENE,57,0.1,1.2,81,0.00,FEW,,0.00,0.0,WeatherDisplay:10.37,2013-07-14 01:12:00,
2013-07-14 03:17:00,58.3,52.5,30.01,ENE,59,0.1,1.2,81,0.00,FEW,,0.00,0.0,WeatherDisplay:10.37,2013-07-14 01:17:00,
2013-07-14 03:22:00,58.3,52.5,30.01,ENE,59,0.0,0.0,81,0.00,FEW,,0.00,0.0,WeatherDisplay:10.37,2013-07-14 01:22:00,
2013-07-14 03:25:00,58.3,52.5,30.01,ENE,59,0.0,1.0,81,0.00,FEW,,0.00,0.0,WeatherDisplay:10.37,2013-07-14 01:25:00,
2013-07-14 03:30:00,58.2,52.4,30.00,ENE,59,0.0,0.0,81,0.00,FEW,,0.00,0.0,WeatherDisplay:10.37,2013-07-14 01:30:00,
2013-07-14 03:35:00,58.1,52.3,30.00,ENE,59,0.0,0.0,81,0.00,FEW,,0.00,0.0,WeatherDisplay:10.37,2013-07-14 01:35:00,
2013-07-14 03:40:00,57.9,52.1,30.01,ENE,59,0.0,0.0,81,0.00,FEW,,0.00,0.0,WeatherDisplay:10.37,2013-07-14 01:40:00,
2013-07-14 03:45:00,57.8,52.0,30.00,ENE,59,0.0,0.0,81,0.00,FEW,,0.00,0.0,WeatherDisplay:10.37,2013-07-14 01:45:00,
2013-07-14 03:50:00,57.6,51.8,30.00,ENE,59,0.0,0.0,81,0.00,FEW,,0.00,0.0,WeatherDisplay:10.37,2013-07-14 01:50:00,
2013-07-14 03:55:00,57.4,51.6,30.00,ENE,59,0.0,0.0,81,0.00,FEW,,0.00,0.0,WeatherDisplay:10.37,2013-07-14 01:55:00,
2013-07-14 04:00:00,57.2,51.4,30.00,ENE,59,0.0,0.0,81,0.00,FEW,,0.00,0.0,WeatherDisplay:10.37,2013-07-14 02:00:00,
2013-07-14 04:05:00,57.0,51.6,30.00,ENE,59,0.0,0.0,82,0.00,FEW,,0.00,0.0,WeatherDisplay:10.37,2013-07-14 02:05:00,
2013-07-14 04:10:00,56.8,51.4,30.00,ENE,59,0.0,0.0,82,0.00,FEW,,0.00,0.0,WeatherDisplay:10.37,2013-07-14 02:10:00,
2013-07-14 04:15:00,56.7,51.6,30.00,ENE,59,0.0,0.0,83,0.00,FEW,,0.00,0.0,WeatherDisplay:10.37,2013-07-14 02:15:00,
2013-07-14 04:20:00,56.5,51.4,30.00,ENE,59,0.0,0.0,83,0.00,FEW,,0.00,0.0,WeatherDisplay:10.37,2013-07-14 02:20:00,
2013-07-14 04:25:00,56.4,51.3,30.00,ENE,59,0.0,0.0,83,0.00,FEW,,0.00,0.0,WeatherDisplay:10.37,2013-07-14 02:25:00,
2013-07-14 04:30:00,56.3,51.5,30.00,ENE,59,0.0,0.0,84,0.00,FEW,,0.00,0.0,WeatherDisplay:10.37,2013-07-14 02:30:00,
2013-07-14 04:35:00,56.3,51.5,30.00,ENE,59,0.0,0.0,84,0.00,FEW,,0.00,0.0,WeatherDisplay:10.37,2013-07-14 02:35:00,
2013-07-14 04:40:00,56.3,51.8,30.00,ENE,59,0.0,0.0,85,0.00,FEW,,0.00,0.0,WeatherDisplay:10.37,2013-07-14 02:40:00,
2013-07-14 04:45:00,56.3,51.8,30.00,ENE,59,0.0,0.0,85,0.00,FEW,,0.00,0.0,WeatherDisplay:10.37,2013-07-14 02:45:00,
2013-07-14 04:51:00,56.3,51.8,30.01,ENE,59,0.0,0.0,85,0.00,FEW,,0.00,0.0,WeatherDisplay:10.37,2013-07-14 02:51:00,
2013-07-14 04:56:00,56.2,51.7,30.01,ENE,59,0.0,0.0,85,0.00,FEW,,0.00,0.0,WeatherDisplay:10.37,2013-07-14 02:56:00,
2013-07-14 05:01:00,56.1,51.7,30.01,ENE,59,0.0,0.0,85,0.00,FEW,,0.00,0.0,WeatherDisplay:10.37,2013-07-14 03:01:00,
2013-07-14 05:06:00,56.0,51.6,30.01,ENE,59,0.0,0.0,85,0.00,FEW,,0.00,0.0,WeatherDisplay:10.37,2013-07-14 03:06:00,
2013-07-14 05:11:00,56.0,51.6,30.00,ENE,59,0.0,0.0,85,0.00,FEW,,0.00,0.0,WeatherDisplay:10.37,2013-07-14 03:11:00,
2013-07-14 05:16:00,56.0,51.9,30.00,ENE,59,0.0,1.0,86,0.00,FEW,,0.00,5.0,WeatherDisplay:10.37,2013-07-14 03:16:00,
2013-07-14 05:21:00,56.1,52.0,30.00,ENE,59,0.0,0.0,86,0.00,FEW,,0.00,7.0,WeatherDisplay:10.37,2013-07-14 03:21:00,
2013-07-14 05:26:00,56.2,52.1,30.00,ENE,59,0.0,0.0,86,0.00,FEW,,0.00,7.0,WeatherDisplay:10.37,2013-07-14 03:26:00,
2013-07-14 05:31:00,56.3,52.2,30.00,ENE,59,0.0,0.0,86,0.00,FEW,,0.00,9.0,WeatherDisplay:10.37,2013-07-14 03:31:00,
2013-07-14 05:36:00,56.4,52.3,30.00,ENE,59,0.0,0.0,86,0.00,FEW,,0.00,12.0,WeatherDisplay:10.37,2013-07-14 03:36:00,
2013-07-14 05:41:00,56.5,52.4,30.00,ENE,59,0.0,0.0,86,0.00,FEW,,0.00,14.0,WeatherDisplay:10.37,2013-07-14 03:41:00,
2013-07-14 05:46:00,56.5,52.4,30.00,ENE,59,0.0,0.0,86,0.00,FEW,,0.00,23.0,WeatherDisplay:10.37,2013-07-14 03:46:00,
2013-07-14 05:51:00,56.5,52.4,30.00,ENE,59,0.0,0.0,86,0.00,FEW,,0.00,37.0,WeatherDisplay:10.37,2013-07-14 03:51:00,
2013-07-14 05:56:00,56.6,52.5,30.00,ENE,59,0.0,0.0,86,0.00,FEW,,0.00,44.0,WeatherDisplay:10.37,2013-07-14 03:56:00,
2013-07-14 06:01:00,56.6,52.5,30.00,ENE,59,0.0,0.0,86,0.00,SCT,,0.00,58.0,WeatherDisplay:10.37,2013-07-14 04:01:00,
2013-07-14 06:03:00,56.7,52.6,30.00,ENE,59,0.0,0.0,86,0.00,SCT,,0.00,65.0,WeatherDisplay:10.37,2013-07-14 04:03:00,
2013-07-14 06:07:00,56.7,52.9,30.00,ENE,59,0.0,0.0,87,0.00,SCT,,0.00,67.0,WeatherDisplay:10.37,2013-07-14 04:07:00,
2013-07-14 06:09:00,56.8,53.0,30.00,ENE,59,0.0,0.0,87,0.00,SCT,,0.00,79.0,WeatherDisplay:10.37,2013-07-14 04:09:00,
2013-07-14 06:14:00,57.1,53.3,30.00,ENE,59,0.0,0.0,87,0.00,SCT,,0.00,88.0,WeatherDisplay:10.37,2013-07-14 04:14:00,
2013-07-14 06:19:00,57.3,53.8,30.00,ENE,59,0.4,1.2,88,0.00,SCT,,0.00,107.0,WeatherDisplay:10.37,2013-07-14 04:19:00,
2013-07-14 06:22:00,57.4,53.6,30.00,ENE,59,0.0,1.2,87,0.00,SCT,,0.00,114.0,WeatherDisplay:10.37,2013-07-14 04:22:00,
2013-07-14 06:27:00,57.8,53.6,30.00,ENE,59,0.0,0.0,86,0.00,FEW,,0.00,130.0,WeatherDisplay:10.37,2013-07-14 04:27:00,
2013-07-14 06:32:00,58.3,53.8,30.00,ENE,59,0.0,0.0,85,0.00,FEW,,0.00,137.0,WeatherDisplay:10.37,2013-07-14 04:32:00,
2013-07-14 06:37:00,59.1,54.3,30.00,ENE,59,0.0,0.0,84,0.00,FEW,,0.00,148.0,WeatherDisplay:10.37,2013-07-14 04:37:00,
2013-07-14 06:42:00,59.6,54.8,30.00,ENE,59,0.0,0.0,84,0.00,FEW,,0.00,137.0,WeatherDisplay:10.37,2013-07-14 04:42:00,
2013-07-14 06:47:00,60.1,54.9,30.00,ENE,59,0.0,0.0,83,0.00,FEW,,0.00,155.0,WeatherDisplay:10.37,2013-07-14 04:47:00,
2013-07-14 06:52:00,60.6,54.7,30.00,ENE,59,0.0,0.0,81,0.00,FEW,,0.00,176.0,WeatherDisplay:10.37,2013-07-14 04:52:00,
2013-07-14 06:57:00,61.3,55.1,30.00,ENE,59,0.0,1.2,80,0.00,FEW,,0.00,185.0,WeatherDisplay:10.37,2013-07-14 04:57:00,
2013-07-14 07:02:00,62.0,55.4,30.00,ENE,59,0.0,0.0,79,0.00,CLR,,0.00,216.0,WeatherDisplay:10.37,2013-07-14 05:02:00,
2013-07-14 07:07:00,62.6,55.3,30.00,ENE,59,0.6,1.2,77,0.00,CLR,,0.00,199.0,WeatherDisplay:10.37,2013-07-14 05:07:00,
2013-07-14 07:12:00,63.2,55.1,30.00,SSE,163,0.0,1.2,75,0.00,CLR,,0.00,209.0,WeatherDisplay:10.37,2013-07-14 05:12:00,
2013-07-14 07:17:00,63.5,55.4,30.00,SSE,166,0.0,0.0,75,0.00,FEW,,0.00,218.0,WeatherDisplay:10.37,2013-07-14 05:17:00,
2013-07-14 07:22:00,64.0,55.5,30.00,WNW,293,0.0,0.0,74,0.00,FEW,,0.00,230.0,WeatherDisplay:10.37,2013-07-14 05:22:00,
2013-07-14 07:27:00,64.6,55.7,30.00,NW,314,0.3,2.3,73,0.00,FEW,,0.00,241.0,WeatherDisplay:10.37,2013-07-14 05:27:00,
2013-07-14 07:32:00,65.0,55.8,30.00,NW,321,0.7,2.3,72,0.00,FEW,,0.00,248.0,WeatherDisplay:10.37,2013-07-14 05:32:00,
2013-07-14 07:37:00,65.3,54.9,30.00,North,355,1.2,3.5,69,0.00,FEW,,0.00,265.0,WeatherDisplay:10.37,2013-07-14 05:37:00,
2013-07-14 07:42:00,65.7,55.2,30.00,North,9,3.0,5.0,69,0.00,FEW,,0.00,279.0,WeatherDisplay:10.37,2013-07-14 05:42:00,
2013-07-14 07:47:00,66.2,55.3,30.00,NNW,333,0.9,4.6,68,0.00,FEW,,0.00,295.0,WeatherDisplay:10.37,2013-07-14 05:47:00,
2013-07-14 07:52:00,66.6,55.7,30.00,NW,313,0.4,3.5,68,0.00,CLR,,0.00,304.0,WeatherDisplay:10.37,2013-07-14 05:52:00,
2013-07-14 07:57:00,66.9,55.6,30.00,NNW,330,0.9,4.6,67,0.00,CLR,,0.00,315.0,WeatherDisplay:10.37,2013-07-14 05:57:00,
2013-07-14 08:02:00,67.5,55.7,30.00,West,263,3.8,8.1,66,0.00,CLR,,0.00,327.0,WeatherDisplay:10.37,2013-07-14 06:02:00,
2013-07-14 08:07:00,68.0,56.2,30.00,NW,324,1.8,6.9,66,0.00,CLR,,0.00,341.0,WeatherDisplay:10.37,2013-07-14 06:07:00,
2013-07-14 08:12:00,68.5,55.4,30.00,North,360,1.4,6.9,63,0.00,CLR,,0.00,353.0,WeatherDisplay:10.37,2013-07-14 06:12:00,
2013-07-14 08:17:00,68.9,56.2,30.00,NNW,328,2.5,6.9,64,0.00,CLR,,0.00,369.0,WeatherDisplay:10.37,2013-07-14 06:17:00,
2013-07-14 08:22:00,69.2,55.2,30.00,North,355,6.1,9.2,61,0.00,CLR,,0.00,380.0,WeatherDisplay:10.37,2013-07-14 06:22:00,
2013-07-14 08:27:00,69.5,55.5,30.00,NW,309,5.3,8.1,61,0.00,CLR,,0.00,390.0,WeatherDisplay:10.37,2013-07-14 06:27:00,
2013-07-14 08:32:00,69.7,54.7,30.00,WNW,293,5.0,11.5,59,0.00,CLR,,0.00,408.0,WeatherDisplay:10.37,2013-07-14 06:32:00,
2013-07-14 08:37:00,69.8,54.4,30.00,North,350,1.9,10.4,58,0.00,CLR,,0.00,424.0,WeatherDisplay:10.37,2013-07-14 06:37:00,
2013-07-14 08:42:00,70.1,54.6,30.00,NW,307,4.7,8.1,58,0.00,CLR,,0.00,431.0,WeatherDisplay:10.37,2013-07-14 06:42:00,
2013-07-14 08:47:00,70.2,54.2,30.00,WNW,297,3.7,9.2,57,0.00,CLR,,0.00,443.0,WeatherDisplay:10.37,2013-07-14 06:47:00,
2013-07-14 08:52:00,70.3,53.4,30.00,NW,314,5.1,10.4,55,0.00,CLR,,0.00,455.0,WeatherDisplay:10.37,2013-07-14 06:52:00,
2013-07-14 08:57:00,70.7,53.7,30.00,NW,310,2.3,10.4,55,0.00,CLR,,0.00,469.0,WeatherDisplay:10.37,2013-07-14 06:57:00,
2013-07-14 09:02:00,71.0,54.0,30.00,NNW,330,4.4,10.4,55,0.00,CLR,,0.00,476.0,WeatherDisplay:10.37,2013-07-14 07:02:00,
2013-07-14 09:07:00,71.2,53.7,30.00,NNW,340,5.4,9.2,54,0.00,CLR,,0.00,499.0,WeatherDisplay:10.37,2013-07-14 07:07:00,
2013-07-14 09:12:00,71.4,53.4,30.00,NNW,337,3.3,10.4,53,0.00,CLR,,0.00,508.0,WeatherDisplay:10.37,2013-07-14 07:12:00,
2013-07-14 09:17:00,71.6,53.6,30.00,NNW,327,5.4,11.5,53,0.00,CLR,,0.00,526.0,WeatherDisplay:10.37,2013-07-14 07:17:00,
2013-07-14 09:22:00,71.6,52.5,30.00,NW,312,2.9,10.4,51,0.00,CLR,,0.00,554.0,WeatherDisplay:10.37,2013-07-14 07:22:00,
2013-07-14 09:27:00,71.6,52.5,30.00,NNW,332,5.5,11.0,51,0.00,CLR,,0.00,547.0,WeatherDisplay:10.37,2013-07-14 07:27:00,
2013-07-14 09:32:00,71.6,51.4,30.00,NNW,329,2.6,6.0,49,0.00,CLR,,0.00,561.0,WeatherDisplay:10.37,2013-07-14 07:32:00,
2013-07-14 09:37:00,71.8,51.6,30.01,North,355,5.4,11.5,49,0.00,CLR,,0.00,563.0,WeatherDisplay:10.37,2013-07-14 07:37:00,
2013-07-14 09:42:00,71.9,51.1,30.01,North,355,6.1,12.7,48,0.00,CLR,,0.00,568.0,WeatherDisplay:10.37,2013-07-14 07:42:00,
2013-07-14 09:47:00,72.0,50.1,30.00,NNW,348,8.3,12.0,46,0.00,CLR,,0.00,582.0,WeatherDisplay:10.37,2013-07-14 07:47:00,
2013-07-14 09:52:00,72.2,50.8,30.00,NNW,346,4.1,9.2,47,0.00,CLR,,0.00,591.0,WeatherDisplay:10.37,2013-07-14 07:52:00,
2013-07-14 09:57:00,72.4,52.2,30.00,NW,319,6.1,10.4,49,0.00,CLR,,0.00,598.0,WeatherDisplay:10.37,2013-07-14 07:57:00,
2013-07-14 10:02:00,72.5,51.7,30.00,WNW,291,5.5,9.2,48,0.00,CLR,,0.00,603.0,WeatherDisplay:10.37,2013-07-14 08:02:00,
2013-07-14 10:07:00,72.7,51.9,30.00,West,260,2.4,5.0,48,0.00,CLR,,0.00,612.0,WeatherDisplay:10.37,2013-07-14 08:07:00,
2013-07-14 10:12:00,72.9,50.9,30.00,WNW,286,6.1,11.5,46,0.00,CLR,,0.00,613.0,WeatherDisplay:10.37,2013-07-14 08:12:00,
2013-07-14 10:17:00,73.1,51.1,30.00,NNW,329,3.1,9.2,46,0.00,CLR,,0.00,624.0,WeatherDisplay:10.37,2013-07-14 08:17:00,
2013-07-14 10:22:00,73.1,50.5,30.00,North,355,7.0,11.5,45,0.00,CLR,,0.00,631.0,WeatherDisplay:10.37,2013-07-14 08:22:00,
2013-07-14 10:27:00,73.3,51.8,30.00,North,351,6.3,11.5,47,0.00,CLR,,0.00,638.0,WeatherDisplay:10.37,2013-07-14 08:27:00,
2013-07-14 10:32:00,73.2,51.8,30.00,WNW,294,5.6,11.5,47,0.00,CLR,,0.00,650.0,WeatherDisplay:10.37,2013-07-14 08:32:00,
2013-07-14 10:37:00,73.1,52.2,30.00,West,266,5.0,10.4,48,0.00,FEW,,0.00,192.0,WeatherDisplay:10.37,2013-07-14 08:37:00,
2013-07-14 10:42:00,73.2,51.2,30.00,North,350,6.3,13.0,46,0.00,SCT,,0.00,671.0,WeatherDisplay:10.37,2013-07-14 08:42:00,
2013-07-14 10:47:00,73.4,51.4,30.00,NNW,335,6.5,11.5,46,0.00,FEW,,0.00,578.0,WeatherDisplay:10.37,2013-07-14 08:47:00,
2013-07-14 10:52:00,73.3,50.7,30.00,NW,313,5.1,13.8,45,0.00,SCT,,0.00,186.0,WeatherDisplay:10.37,2013-07-14 08:52:00,
2013-07-14 10:57:00,72.7,50.7,30.00,NW,325,6.5,11.5,46,0.00,BKN,,0.00,758.0,WeatherDisplay:10.37,2013-07-14 08:57:00,
2013-07-14 11:02:00,73.0,50.4,29.99,North,9,4.5,10.4,45,0.00,SCT,,0.00,721.0,WeatherDisplay:10.37,2013-07-14 09:02:00,
2013-07-14 11:07:00,73.7,50.4,29.99,NW,320,3.7,10.4,44,0.00,FEW,,0.00,717.0,WeatherDisplay:10.37,2013-07-14 09:07:00,
2013-07-14 11:12:00,74.2,50.9,29.99,NNW,340,5.7,14.0,44,0.00,CLR,,0.00,714.0,WeatherDisplay:10.37,2013-07-14 09:12:00,
2013-07-14 11:17:00,74.4,51.1,29.99,North,360,5.0,15.0,44,0.00,CLR,,0.00,715.0,WeatherDisplay:10.37,2013-07-14 09:17:00,
2013-07-14 11:22:00,74.4,50.4,29.99,West,275,7.8,12.0,43,0.00,CLR,,0.00,717.0,WeatherDisplay:10.37,2013-07-14 09:22:00,
2013-07-14 11:27:00,74.6,51.2,29.99,WNW,298,8.9,12.0,44,0.00,CLR,,0.00,719.0,WeatherDisplay:10.37,2013-07-14 09:27:00,
2013-07-14 11:32:00,74.6,51.9,29.99,WNW,298,3.6,11.0,45,0.00,CLR,,0.00,726.0,WeatherDisplay:10.37,2013-07-14 09:32:00,
2013-07-14 11:37:00,74.7,50.7,30.00,North,355,6.4,11.5,43,0.00,CLR,,0.00,728.0,WeatherDisplay:10.37,2013-07-14 09:37:00,
2013-07-14 11:42:00,74.9,50.3,30.00,NNW,331,6.4,11.5,42,0.00,CLR,,0.00,733.0,WeatherDisplay:10.37,2013-07-14 09:42:00,
2013-07-14 11:47:00,75.3,50.6,30.00,WSW,258,5.8,11.5,42,0.00,CLR,,0.00,737.0,WeatherDisplay:10.37,2013-07-14 09:47:00,
2013-07-14 11:52:00,75.4,50.7,30.00,NNW,340,3.6,11.5,42,0.00,CLR,,0.00,740.0,WeatherDisplay:10.37,2013-07-14 09:52:00,
2013-07-14 11:57:00,75.3,51.3,30.00,NNW,337,5.4,10.4,43,0.00,FEW,,0.00,742.0,WeatherDisplay:10.37,2013-07-14 09:57:00,
2013-07-14 12:02:00,75.6,51.5,30.00,WNW,293,5.8,11.0,43,0.00,FEW,,0.00,742.0,WeatherDisplay:10.37,2013-07-14 10:02:00,
2013-07-14 12:07:00,75.6,51.5,30.00,NW,304,2.8,6.9,43,0.00,FEW,,0.00,749.0,WeatherDisplay:10.37,2013-07-14 10:07:00,
2013-07-14 12:12:00,75.8,51.7,30.00,West,263,4.9,11.5,43,0.00,FEW,,0.00,751.0,WeatherDisplay:10.37,2013-07-14 10:12:00,
2013-07-14 12:17:00,75.9,52.4,29.99,West,268,5.3,10.0,44,0.00,CLR,,0.00,756.0,WeatherDisplay:10.37,2013-07-14 10:17:00,
2013-07-14 12:23:00,76.3,52.2,29.99,WSW,251,5.0,9.2,43,0.00,CLR,,0.00,763.0,WeatherDisplay:10.37,2013-07-14 10:23:00,
2013-07-14 12:28:00,76.3,51.5,29.99,NW,315,2.5,9.2,42,0.00,CLR,,0.00,763.0,WeatherDisplay:10.37,2013-07-14 10:28:00,
2013-07-14 12:33:00,76.2,51.4,29.99,WNW,292,5.2,11.5,42,0.00,CLR,,0.00,766.0,WeatherDisplay:10.37,2013-07-14 10:33:00,
2013-07-14 12:38:00,76.2,51.4,29.99,NNW,345,3.1,7.0,42,0.00,CLR,,0.00,765.0,WeatherDisplay:10.37,2013-07-14 10:38:00,
2013-07-14 12:43:00,76.6,51.8,29.99,North,5,3.5,9.2,42,0.00,CLR,,0.00,766.0,WeatherDisplay:10.37,2013-07-14 10:43:00,
2013-07-14 12:48:00,76.9,50.7,29.99,NW,306,4.5,11.5,40,0.00,CLR,,0.00,765.0,WeatherDisplay:10.37,2013-07-14 10:48:00,
2013-07-14 12:53:00,76.8,49.3,29.99,NNW,342,5.5,9.2,38,0.00,CLR,,0.00,768.0,WeatherDisplay:10.37,2013-07-14 10:53:00,
2013-07-14 12:58:00,77.3,49.0,29.99,WNW,299,4.9,11.5,37,0.00,CLR,,0.00,770.0,WeatherDisplay:10.37,2013-07-14 10:58:00,
2013-07-14 13:03:00,77.5,49.2,29.99,WNW,303,5.0,13.8,37,0.00,CLR,,0.00,772.0,WeatherDisplay:10.37,2013-07-14 11:03:00,
2013-07-14 13:08:00,77.6,49.3,29.99,WNW,300,5.2,12.7,37,0.00,CLR,,0.00,772.0,WeatherDisplay:10.37,2013-07-14 11:08:00,
2013-07-14 13:13:00,77.8,47.9,29.99,NNW,339,7.3,12.0,35,0.00,CLR,,0.00,768.0,WeatherDisplay:10.37,2013-07-14 11:13:00,
2013-07-14 13:18:00,77.8,47.9,29.99,NNW,348,3.8,10.4,35,0.00,CLR,,0.00,766.0,WeatherDisplay:10.37,2013-07-14 11:18:00,
2013-07-14 13:24:00,77.8,48.7,29.99,North,350,7.1,15.0,36,0.00,OVC,,0.00,765.0,WeatherDisplay:10.37,2013-07-14 11:24:00,
2013-07-14 13:29:00,78.0,48.1,29.99,NNW,331,6.4,11.0,35,0.00,CLR,,0.00,765.0,WeatherDisplay:10.37,2013-07-14 11:29:00,
2013-07-14 13:34:00,77.9,48.0,29.98,NNE,29,2.5,15.0,35,0.00,CLR,,0.00,756.0,WeatherDisplay:10.37,2013-07-14 11:34:00,
2013-07-14 13:39:00,78.4,50.0,29.99,North,360,3.7,10.4,37,0.00,CLR,,0.00,759.0,WeatherDisplay:10.37,2013-07-14 11:39:00,
2013-07-14 13:44:00,78.8,47.3,29.99,NW,319,6.6,15.0,33,0.00,CLR,,0.00,754.0,WeatherDisplay:10.37,2013-07-14 11:44:00,
2013-07-14 13:49:00,78.6,47.1,29.99,NNW,335,8.5,13.0,33,0.00,CLR,,0.00,752.0,WeatherDisplay:10.37,2013-07-14 11:49:00,
2013-07-14 13:54:00,78.2,47.5,29.99,NW,322,6.7,10.4,34,0.00,CLR,,0.00,749.0,WeatherDisplay:10.37,2013-07-14 11:54:00,
2013-07-14 13:59:00,77.9,49.5,29.98,North,10,5.3,10.4,37,0.00,CLR,,0.00,744.0,WeatherDisplay:10.37,2013-07-14 11:59:00,
2013-07-14 14:04:00,78.1,49.7,29.98,WNW,297,4.4,11.0,37,0.00,CLR,,0.00,740.0,WeatherDisplay:10.37,2013-07-14 12:04:00,
2013-07-14 14:09:00,78.5,49.3,29.98,NNW,346,5.3,14.0,36,0.00,CLR,,0.00,733.0,WeatherDisplay:10.37,2013-07-14 12:09:00,
2013-07-14 14:14:00,78.7,49.5,29.98,NNW,340,6.5,12.7,36,0.00,CLR,,0.00,729.0,WeatherDisplay:10.37,2013-07-14 12:14:00,
2013-07-14 14:19:00,78.6,50.1,29.98,West,275,6.0,12.7,37,0.00,CLR,,0.00,724.0,WeatherDisplay:10.37,2013-07-14 12:19:00,
2013-07-14 14:24:00,78.5,50.1,29.98,WNW,291,5.6,15.0,37,0.00,CLR,,0.00,721.0,WeatherDisplay:10.37,2013-07-14 12:24:00,
2013-07-14 14:29:00,78.7,50.2,29.98,North,11,5.3,16.1,37,0.00,CLR,,0.00,714.0,WeatherDisplay:10.37,2013-07-14 12:29:00,
2013-07-14 14:34:00,78.8,50.3,29.98,North,360,6.8,11.5,37,0.00,CLR,,0.00,710.0,WeatherDisplay:10.37,2013-07-14 12:34:00,
2013-07-14 14:39:00,78.9,51.8,29.98,NW,314,4.6,11.0,39,0.00,CLR,,0.00,710.0,WeatherDisplay:10.37,2013-07-14 12:39:00,
2013-07-14 14:44:00,79.1,51.3,29.98,North,355,6.3,11.0,38,0.00,CLR,,0.00,696.0,WeatherDisplay:10.37,2013-07-14 12:44:00,
2013-07-14 14:49:00,79.3,50.8,29.98,North,360,5.8,11.5,37,0.00,CLR,,0.00,694.0,WeatherDisplay:10.37,2013-07-14 12:49:00,
2013-07-14 14:54:00,79.4,52.3,29.98,NNW,344,2.4,11.5,39,0.00,CLR,,0.00,687.0,WeatherDisplay:10.37,2013-07-14 12:54:00,
2013-07-14 14:59:00,79.7,51.1,29.98,NNE,16,7.8,13.0,37,0.00,CLR,,0.00,687.0,WeatherDisplay:10.37,2013-07-14 12:59:00,
2013-07-14 15:04:00,79.3,51.5,29.98,North,360,8.9,18.4,38,0.00,CLR,,0.00,153.0,WeatherDisplay:10.37,2013-07-14 13:04:00,
2013-07-14 15:09:00,78.6,51.6,29.98,NNE,23,4.9,11.0,39,0.00,SCT,,0.00,156.0,WeatherDisplay:10.37,2013-07-14 13:09:00,
2013-07-14 15:14:00,78.5,52.2,29.98,NNE,21,3.0,9.2,40,0.00,SCT,,0.00,679.0,WeatherDisplay:10.37,2013-07-14 13:14:00,
2013-07-14 15:19:00,78.9,51.8,29.98,ENE,74,5.3,16.1,39,0.00,CLR,,0.00,682.0,WeatherDisplay:10.37,2013-07-14 13:19:00,
2013-07-14 15:24:00,79.1,52.0,29.98,West,261,4.0,12.7,39,0.00,CLR,,0.00,666.0,WeatherDisplay:10.37,2013-07-14 13:24:00,
2013-07-14 15:29:00,79.3,52.2,29.98,NW,317,7.8,15.0,39,0.00,CLR,,0.00,656.0,WeatherDisplay:10.37,2013-07-14 13:29:00,
2013-07-14 15:34:00,79.2,51.4,29.98,NNW,334,8.2,19.6,38,0.00,CLR,,0.00,598.0,WeatherDisplay:10.37,2013-07-14 13:34:00,
2013-07-14 15:39:00,79.1,52.0,29.98,NW,315,6.2,13.8,39,0.00,CLR,,0.00,629.0,WeatherDisplay:10.37,2013-07-14 13:39:00,
2013-07-14 15:44:00,79.0,50.5,29.98,NNE,32,4.9,11.5,37,0.00,CLR,,0.00,626.0,WeatherDisplay:10.37,2013-07-14 13:44:00,
2013-07-14 15:49:00,79.0,51.2,29.98,North,355,3.1,10.4,38,0.00,CLR,,0.00,636.0,WeatherDisplay:10.37,2013-07-14 13:49:00,
2013-07-14 15:54:00,79.6,51.8,29.98,NE,36,5.6,10.4,38,0.00,CLR,,0.00,671.0,WeatherDisplay:10.37,2013-07-14 13:54:00,
2013-07-14 15:59:00,79.7,51.8,29.98,NW,323,7.3,12.7,38,0.00,FEW,,0.00,146.0,WeatherDisplay:10.37,2013-07-14 13:59:00,
2013-07-14 16:04:00,78.9,51.8,29.98,North,355,5.2,9.0,39,0.00,SCT,,0.00,617.0,WeatherDisplay:10.37,2013-07-14 14:04:00,
2013-07-14 16:09:00,78.9,52.5,29.98,NNW,340,4.5,9.2,40,0.00,SCT,,0.00,628.0,WeatherDisplay:10.37,2013-07-14 14:09:00,
2013-07-14 16:14:00,79.5,53.1,29.98,NNW,346,4.6,10.4,40,0.00,CLR,,0.00,612.0,WeatherDisplay:10.37,2013-07-14 14:14:00,
2013-07-14 16:19:00,79.7,52.5,29.98,NW,304,4.7,10.4,39,0.00,CLR,,0.00,598.0,WeatherDisplay:10.37,2013-07-14 14:19:00,
2013-07-14 16:24:00,79.7,51.8,29.98,North,360,4.3,11.5,38,0.00,CLR,,0.00,547.0,WeatherDisplay:10.37,2013-07-14 14:24:00,
2013-07-14 16:29:00,79.8,51.9,29.98,NNW,347,7.8,15.0,38,0.00,CLR,,0.00,543.0,WeatherDisplay:10.37,2013-07-14 14:29:00,
2013-07-14 16:34:00,79.5,52.4,29.98,NW,321,3.4,9.2,39,0.00,CLR,,0.00,517.0,WeatherDisplay:10.37,2013-07-14 14:34:00,
2013-07-14 16:39:00,79.5,51.7,29.98,NW,313,6.6,13.0,38,0.00,CLR,,0.00,503.0,WeatherDisplay:10.37,2013-07-14 14:39:00,
2013-07-14 16:44:00,79.5,50.9,29.97,NNW,336,9.1,13.8,37,0.00,CLR,,0.00,496.0,WeatherDisplay:10.37,2013-07-14 14:44:00,
2013-07-14 16:49:00,79.5,50.9,29.97,NNW,329,6.0,11.5,37,0.00,CLR,,0.00,480.0,WeatherDisplay:10.37,2013-07-14 14:49:00,
2013-07-14 16:54:00,79.5,50.9,29.98,North,355,5.7,11.5,37,0.00,CLR,,0.00,471.0,WeatherDisplay:10.37,2013-07-14 14:54:00,
2013-07-14 16:59:00,79.5,51.7,29.97,NW,307,4.3,12.7,38,0.00,CLR,,0.00,457.0,WeatherDisplay:10.37,2013-07-14 14:59:00,
2013-07-14 17:04:00,79.6,50.3,29.98,North,349,7.5,12.0,36,0.00,CLR,,0.00,431.0,WeatherDisplay:10.37,2013-07-14 15:04:00,
2013-07-14 17:09:00,79.5,50.9,29.97,NNW,342,7.1,11.5,37,0.00,CLR,,0.00,427.0,WeatherDisplay:10.37,2013-07-14 15:09:00,
2013-07-14 17:14:00,79.4,50.9,29.97,North,5,10.4,16.0,37,0.00,CLR,,0.00,417.0,WeatherDisplay:10.37,2013-07-14 15:14:00,
2013-07-14 17:19:00,79.1,51.3,29.97,NNW,347,4.7,11.5,38,0.00,CLR,,0.00,415.0,WeatherDisplay:10.37,2013-07-14 15:19:00,
2013-07-14 17:24:00,79.2,51.4,29.97,North,5,5.3,9.2,38,0.00,CLR,,0.00,401.0,WeatherDisplay:10.37,2013-07-14 15:24:00,
2013-07-14 17:29:00,79.3,50.0,29.97,WNW,293,3.5,9.2,36,0.00,CLR,,0.00,399.0,WeatherDisplay:10.37,2013-07-14 15:29:00,
2013-07-14 17:34:00,79.5,52.4,29.97,NNW,338,3.1,8.1,39,0.00,CLR,,0.00,383.0,WeatherDisplay:10.37,2013-07-14 15:34:00,
2013-07-14 17:39:00,79.5,50.9,29.97,NNW,329,5.5,12.7,37,0.00,CLR,,0.00,376.0,WeatherDisplay:10.37,2013-07-14 15:39:00,
2013-07-14 17:44:00,79.4,51.6,29.97,NNW,347,6.2,15.0,38,0.00,CLR,,0.00,353.0,WeatherDisplay:10.37,2013-07-14 15:44:00,
2013-07-14 17:49:00,79.2,50.7,29.97,NNW,343,5.3,13.8,37,0.00,CLR,,0.00,323.0,WeatherDisplay:10.37,2013-07-14 15:49:00,
2013-07-14 17:50:00,79.2,50.7,29.97,NNW,341,6.0,14.0,37,0.00,CLR,,0.00,323.0,WeatherDisplay:10.37,2013-07-14 15:50:00,
2013-07-14 17:55:00,79.0,51.2,29.97,North,360,7.3,12.0,38,0.00,CLR,,0.00,309.0,WeatherDisplay:10.37,2013-07-14 15:55:00,
2013-07-14 18:00:00,79.0,51.2,29.97,North,355,5.2,10.4,38,0.00,CLR,,0.00,294.0,WeatherDisplay:10.37,2013-07-14 16:00:00,
2013-07-14 18:05:00,78.8,51.0,29.97,WNW,292,1.9,6.0,38,0.00,CLR,,0.00,295.0,WeatherDisplay:10.37,2013-07-14 16:05:00,
2013-07-14 18:10:00,78.7,51.7,29.97,NNW,329,3.9,8.1,39,0.00,CLR,,0.00,121.0,WeatherDisplay:10.37,2013-07-14 16:10:00,
2013-07-14 18:15:00,78.8,51.0,29.97,NNW,336,6.0,13.8,38,0.00,CLR,,0.00,276.0,WeatherDisplay:10.37,2013-07-14 16:15:00,
2013-07-14 18:20:00,78.8,51.0,29.97,NNW,340,4.4,10.4,38,0.00,CLR,,0.00,260.0,WeatherDisplay:10.37,2013-07-14 16:20:00,
2013-07-14 18:25:00,78.6,52.3,29.97,North,355,2.6,6.0,40,0.00,CLR,,0.00,244.0,WeatherDisplay:10.37,2013-07-14 16:25:00,
2013-07-14 18:30:00,78.5,51.5,29.97,WSW,257,5.6,11.5,39,0.00,CLR,,0.00,223.0,WeatherDisplay:10.37,2013-07-14 16:30:00,
2013-07-14 18:35:00,78.3,52.0,29.97,NNW,329,2.9,10.4,40,0.00,CLR,,0.00,211.0,WeatherDisplay:10.37,2013-07-14 16:35:00,
2013-07-14 18:40:00,78.1,51.8,29.97,NNW,333,3.7,7.0,40,0.00,CLR,,0.00,202.0,WeatherDisplay:10.37,2013-07-14 16:40:00,
2013-07-14 18:45:00,77.9,50.9,29.97,NW,315,6.2,11.5,39,0.00,CLR,,0.00,185.0,WeatherDisplay:10.37,2013-07-14 16:45:00,
2013-07-14 18:50:00,77.8,52.2,29.96,West,267,2.8,6.9,41,0.00,CLR,,0.00,172.0,WeatherDisplay:10.37,2013-07-14 16:50:00,
2013-07-14 18:55:00,77.6,52.0,29.97,NW,313,3.9,9.2,41,0.00,CLR,,0.00,158.0,WeatherDisplay:10.37,2013-07-14 16:55:00,
2013-07-14 19:00:00,77.6,52.0,29.97,NNW,338,2.7,12.7,41,0.00,CLR,,0.00,142.0,WeatherDisplay:10.37,2013-07-14 17:00:00,
2013-07-14 19:05:00,77.5,51.9,29.96,NW,325,3.4,10.4,41,0.00,FEW,,0.00,127.0,WeatherDisplay:10.37,2013-07-14 17:05:00,
2013-07-14 19:10:00,77.3,52.4,29.96,NNE,23,2.4,4.6,42,0.00,FEW,,0.00,113.0,WeatherDisplay:10.37,2013-07-14 17:10:00,
2013-07-14 19:16:00,77.1,52.2,29.96,NNW,331,1.8,9.2,42,0.00,FEW,,0.00,100.0,WeatherDisplay:10.37,2013-07-14 17:16:00,
2013-07-14 19:21:00,76.9,52.7,29.97,NW,325,3.9,6.0,43,0.00,FEW,,0.00,90.0,WeatherDisplay:10.37,2013-07-14 17:21:00,
2013-07-14 19:26:00,76.8,53.2,29.97,NW,325,3.1,8.0,44,0.00,SCT,,0.00,79.0,WeatherDisplay:10.37,2013-07-14 17:26:00,
2013-07-14 19:31:00,76.5,53.0,29.97,WNW,297,1.6,6.0,44,0.00,SCT,,0.00,69.0,WeatherDisplay:10.37,2013-07-14 17:31:00,
2013-07-14 19:36:00,76.3,52.8,29.97,WNW,294,1.6,9.2,44,0.00,SCT,,0.00,62.0,WeatherDisplay:10.37,2013-07-14 17:36:00,
2013-07-14 19:41:00,76.1,53.2,29.97,NW,308,4.1,6.0,45,0.00,SCT,,0.00,53.0,WeatherDisplay:10.37,2013-07-14 17:41:00,
2013-07-14 19:46:00,76.0,53.1,29.97,NW,305,1.6,6.9,45,0.00,SCT,,0.00,37.0,WeatherDisplay:10.37,2013-07-14 17:46:00,
2013-07-14 19:51:00,75.8,53.5,29.97,NNW,344,2.5,6.0,46,0.00,SCT,,0.00,33.0,WeatherDisplay:10.37,2013-07-14 17:51:00,
2013-07-14 19:56:00,75.7,53.4,29.97,NNW,335,2.4,4.6,46,0.00,SCT,,0.00,28.0,WeatherDisplay:10.37,2013-07-14 17:56:00,
2013-07-14 20:01:00,75.4,53.8,29.97,NNW,335,1.0,3.5,47,0.00,SCT,,0.00,25.0,WeatherDisplay:10.37,2013-07-14 18:01:00,
2013-07-14 20:06:00,75.2,53.6,29.97,NNW,334,0.2,4.6,47,0.00,SCT,,0.00,21.0,WeatherDisplay:10.37,2013-07-14 18:06:00,
2013-07-14 20:12:00,74.9,53.9,29.97,NNW,334,0.2,1.2,48,0.00,SCT,,0.00,16.0,WeatherDisplay:10.37,2013-07-14 18:12:00,
2013-07-14 20:17:00,74.7,54.3,29.97,NNW,334,0.1,3.5,49,0.00,SCT,,0.00,12.0,WeatherDisplay:10.37,2013-07-14 18:17:00,
2013-07-14 20:22:00,74.4,54.0,29.97,NNW,335,0.8,2.0,49,0.00,SCT,,0.00,9.0,WeatherDisplay:10.37,2013-07-14 18:22:00,
2013-07-14 20:27:00,74.1,54.3,29.97,NNW,335,0.0,0.0,50,0.00,SCT,,0.00,7.0,WeatherDisplay:10.37,2013-07-14 18:27:00,
2013-07-14 20:32:00,73.8,54.5,29.98,NNW,334,0.0,0.0,51,0.00,SCT,,0.00,5.0,WeatherDisplay:10.37,2013-07-14 18:32:00,
2013-07-14 20:37:00,73.4,54.7,29.98,NNW,334,0.0,0.0,52,0.00,SCT,,0.00,0.0,WeatherDisplay:10.37,2013-07-14 18:37:00,
2013-07-14 20:42:00,73.0,54.3,29.98,NNW,334,0.0,0.0,52,0.00,SCT,,0.00,0.0,WeatherDisplay:10.37,2013-07-14 18:42:00,
2013-07-14 20:47:00,72.5,54.4,29.98,NNW,334,0.0,1.2,53,0.00,SCT,,0.00,0.0,WeatherDisplay:10.37,2013-07-14 18:47:00,
2013-07-14 20:52:00,72.0,54.4,29.98,NNW,334,0.0,0.0,54,0.00,SCT,,0.00,0.0,WeatherDisplay:10.37,2013-07-14 18:52:00,
2013-07-14 20:57:00,71.5,54.5,29.98,NNW,334,0.0,0.0,55,0.00,SCT,,0.00,0.0,WeatherDisplay:10.37,2013-07-14 18:57:00,
2013-07-14 21:02:00,71.0,54.5,29.98,NNW,334,0.0,0.0,56,0.00,SCT,,0.00,0.0,WeatherDisplay:10.37,2013-07-14 19:02:00,
2013-07-14 21:07:00,70.5,54.5,29.98,NNW,334,0.0,0.0,57,0.00,SCT,,0.00,0.0,WeatherDisplay:10.37,2013-07-14 19:07:00,
2013-07-14 21:12:00,70.0,54.5,29.99,NNW,334,0.0,0.0,58,0.00,SCT,,0.00,0.0,WeatherDisplay:10.37,2013-07-14 19:12:00,
2013-07-14 21:17:00,69.6,54.6,29.99,NNW,334,0.0,0.0,59,0.00,SCT,,0.00,0.0,WeatherDisplay:10.37,2013-07-14 19:17:00,
2013-07-14 21:22:00,69.1,54.6,29.99,NNW,334,0.0,0.0,60,0.00,SCT,,0.00,0.0,WeatherDisplay:10.37,2013-07-14 19:22:00,
2013-07-14 21:27:00,68.7,54.7,29.99,NNW,334,0.0,0.0,61,0.00,SCT,,0.00,0.0,WeatherDisplay:10.37,2013-07-14 19:27:00,
2013-07-14 21:32:00,68.3,54.8,29.99,NNW,334,0.0,0.0,62,0.00,SCT,,0.00,0.0,WeatherDisplay:10.37,2013-07-14 19:32:00,
2013-07-14 21:37:00,67.9,54.8,29.99,NNW,334,0.0,0.0,63,0.00,SCT,,0.00,0.0,WeatherDisplay:10.37,2013-07-14 19:37:00,
2013-07-14 21:42:00,67.5,54.5,29.99,NNW,334,0.0,0.0,63,0.00,SCT,,0.00,0.0,WeatherDisplay:10.37,2013-07-14 19:42:00,
2013-07-14 21:47:00,67.2,54.6,29.99,NNW,334,0.0,0.0,64,0.00,SCT,,0.00,0.0,WeatherDisplay:10.37,2013-07-14 19:47:00,
2013-07-14 21:52:00,66.9,54.7,30.00,NNW,334,0.0,0.0,65,0.00,SCT,,0.00,0.0,WeatherDisplay:10.37,2013-07-14 19:52:00,
2013-07-14 21:57:00,66.6,54.9,30.00,NNW,334,0.0,0.0,66,0.00,SCT,,0.00,0.0,WeatherDisplay:10.37,2013-07-14 19:57:00,
2013-07-14 22:02:00,66.2,54.9,30.00,NNW,334,0.0,0.0,67,0.00,SCT,,0.00,0.0,WeatherDisplay:10.37,2013-07-14 20:02:00,
2013-07-14 22:07:00,65.9,55.0,30.00,NNW,334,0.0,0.0,68,0.00,SCT,,0.00,0.0,WeatherDisplay:10.37,2013-07-14 20:07:00,
2013-07-14 22:12:00,65.6,54.8,30.00,NNW,334,0.0,0.0,68,0.00,SCT,,0.00,0.0,WeatherDisplay:10.37,2013-07-14 20:12:00,
2013-07-14 22:17:00,65.3,54.9,30.00,NNW,334,0.0,0.0,69,0.00,SCT,,0.00,0.0,WeatherDisplay:10.37,2013-07-14 20:17:00,
2013-07-14 22:22:00,65.0,54.6,30.00,NNW,334,0.0,0.0,69,0.00,SCT,,0.00,0.0,WeatherDisplay:10.37,2013-07-14 20:22:00,
2013-07-14 22:27:00,64.7,54.7,30.00,NNW,334,0.0,0.0,70,0.00,SCT,,0.00,0.0,WeatherDisplay:10.37,2013-07-14 20:27:00,
2013-07-14 22:32:00,64.4,54.4,30.00,NNW,334,0.0,0.0,70,0.00,SCT,,0.00,0.0,WeatherDisplay:10.37,2013-07-14 20:32:00,
2013-07-14 22:37:00,64.2,54.6,30.00,NNW,334,0.0,0.0,71,0.00,SCT,,0.00,0.0,WeatherDisplay:10.37,2013-07-14 20:37:00,
2013-07-14 22:42:00,63.9,54.7,30.00,NNW,334,0.0,0.0,72,0.00,SCT,,0.00,0.0,WeatherDisplay:10.37,2013-07-14 20:42:00,
2013-07-14 22:47:00,63.7,54.5,30.00,NNW,334,0.0,0.0,72,0.00,SCT,,0.00,0.0,WeatherDisplay:10.37,2013-07-14 20:47:00,
2013-07-14 22:52:00,63.4,54.6,30.00,NNW,334,0.0,0.0,73,0.00,SCT,,0.00,0.0,WeatherDisplay:10.37,2013-07-14 20:52:00,
2013-07-14 22:57:00,63.2,54.4,30.00,NNW,334,0.0,0.0,73,0.00,SCT,,0.00,0.0,WeatherDisplay:10.37,2013-07-14 20:57:00,
2013-07-14 23:02:00,63.1,54.7,30.00,NNW,334,0.0,0.0,74,0.00,SCT,,0.00,0.0,WeatherDisplay:10.37,2013-07-14 21:02:00,
2013-07-14 23:07:00,62.9,54.5,29.99,NNW,334,0.0,0.0,74,0.00,SCT,,0.00,0.0,WeatherDisplay:10.37,2013-07-14 21:07:00,
2013-07-14 23:12:00,62.7,54.7,29.99,NNW,334,0.0,0.0,75,0.00,SCT,,0.00,0.0,WeatherDisplay:10.37,2013-07-14 21:12:00,
2013-07-14 23:17:00,62.5,54.5,30.00,NNW,334,0.0,0.0,75,0.00,SCT,,0.00,0.0,WeatherDisplay:10.37,2013-07-14 21:17:00,
2013-07-14 23:22:00,62.3,54.3,29.99,NNW,335,0.0,0.0,75,0.00,SCT,,0.00,0.0,WeatherDisplay:10.37,2013-07-14 21:22:00,
2013-07-14 23:27:00,62.2,54.5,29.99,NNW,334,0.0,0.0,76,0.00,SCT,,0.00,0.0,WeatherDisplay:10.37,2013-07-14 21:27:00,
2013-07-14 23:32:00,62.0,54.3,29.99,NNW,334,0.0,0.0,76,0.00,SCT,,0.00,0.0,WeatherDisplay:10.37,2013-07-14 21:32:00,
2013-07-14 23:37:00,61.8,54.2,29.99,NNW,334,0.0,0.0,76,0.00,SCT,,0.00,0.0,WeatherDisplay:10.37,2013-07-14 21:37:00,
2013-07-14 23:42:00,61.6,54.3,29.99,NNW,334,0.0,0.0,77,0.00,SCT,,0.00,0.0,WeatherDisplay:10.37,2013-07-14 21:42:00,
2013-07-14 23:47:00,61.4,54.1,29.99,NNW,334,0.0,0.0,77,0.00,SCT,,0.00,0.0,WeatherDisplay:10.37,2013-07-14 21:47:00,
2013-07-14 23:52:00,61.2,53.9,29.99,NNW,334,0.0,0.0,77,0.00,SCT,,0.00,0.0,WeatherDisplay:10.37,2013-07-14 21:52:00,
2013-07-14 23:57:00,61.0,54.1,29.99,NNW,334,0.0,0.0,78,0.00,SCT,,0.00,0.0,WeatherDisplay:10.37,2013-07-14 21:57:00,